Location: Unspecified
(0.0000°N, 0.0000°E)
Time: 12:19:11
(UTC+00:00)

ISS - Visible Passes

Search period start: 23 March 2017 00:00
Search period end: 02 April 2017 00:00
Orbit: 399 x 409 km, 51.6° (Epoch: 23 March)

Date Brightness Start Highest point End Pass type
(mag) Time Alt. Az. Time Alt. Az. Time Alt. Az.
24 Mar -1.1 19:04:31 10° WSW 19:06:56 19° NW 19:09:22 10° N visible
27 Mar -1.6 04:53:21 10° N 04:56:11 26° NE 04:59:00 10° ESE visible
28 Mar -0.4 04:03:50 10° NE 04:03:51 10° NE 04:04:28 10° ENE visible
28 Mar -2.5 05:37:25 10° WNW 05:40:07 23° SW 05:42:49 10° S visible
29 Mar -3.9 04:47:57 67° SSW 04:47:57 67° SSW 04:51:03 10° SSE visible
